Time,TemperatureF,DewpointF,PressureIn,WindDirection,WindDirectionDegrees,WindSpeedMPH,WindSpeedGustMPH,Humidity,HourlyPrecipIn,Conditions,Clouds,dailyrainin,SoftwareType,DateUTC
2013-09-08 00:01:00,67.9,63.9,30.03,SSE,150,0.0,0.0,87,0.00,,,0.00,VWS V14.01,2013-09-08 04:01:00,
2013-09-08 00:06:00,67.8,63.8,30.03,SSE,150,0.0,0.0,87,0.00,,,0.00,VWS V14.01,2013-09-08 04:06:00,
2013-09-08 00:11:00,67.7,63.7,30.03,SSE,150,0.0,0.0,87,0.00,,,0.00,VWS V14.01,2013-09-08 04:11:00,
2013-09-08 00:16:00,67.6,63.6,30.03,SSE,150,0.0,0.0,87,0.00,,,0.00,VWS V14.01,2013-09-08 04:16:00,
2013-09-08 00:21:00,67.5,63.5,30.03,SSE,150,0.0,0.0,87,0.00,,,0.00,VWS V14.01,2013-09-08 04:21:00,
2013-09-08 00:26:00,67.4,63.4,30.03,SSE,150,0.0,0.0,87,0.00,,,0.00,VWS V14.01,2013-09-08 04:26:00,
2013-09-08 00:31:00,67.3,63.3,30.03,SSE,150,0.0,0.0,87,0.00,,,0.00,VWS V14.01,2013-09-08 04:31:00,
2013-09-08 00:36:00,67.1,63.4,30.03,SSE,150,0.0,0.0,88,0.00,,,0.00,VWS V14.01,2013-09-08 04:36:00,
2013-09-08 00:41:00,67.1,63.4,30.03,SSE,150,0.0,0.0,88,0.00,,,0.00,VWS V14.01,2013-09-08 04:41:00,
2013-09-08 00:46:00,67.0,63.3,30.03,SSE,150,0.0,0.0,88,0.00,,,0.00,VWS V14.01,2013-09-08 04:46:00,
2013-09-08 00:51:00,66.9,63.2,30.03,SSE,150,0.0,0.0,88,0.00,,,0.00,VWS V14.01,2013-09-08 04:51:00,
2013-09-08 00:56:00,66.8,63.1,30.03,SE,142,0.0,0.0,88,0.00,,,0.00,VWS V14.01,2013-09-08 04:56:00,
2013-09-08 01:01:00,66.8,63.1,30.03,SE,142,0.0,2.0,88,0.00,,,0.00,VWS V14.01,2013-09-08 05:01:00,
2013-09-08 01:06:00,66.7,63.4,30.03,SE,142,0.0,0.0,89,0.00,,,0.00,VWS V14.01,2013-09-08 05:06:00,
2013-09-08 01:11:00,66.6,62.9,30.03,SE,142,0.0,0.0,88,0.00,,,0.00,VWS V14.01,2013-09-08 05:11:00,
2013-09-08 01:16:00,66.6,63.3,30.04,SE,142,0.0,0.0,89,0.00,,,0.00,VWS V14.01,2013-09-08 05:16:00,
2013-09-08 01:21:00,66.5,63.2,30.04,SE,142,0.0,0.0,89,0.00,,,0.00,VWS V14.01,2013-09-08 05:21:00,
2013-09-08 01:26:00,66.3,63.0,30.04,SE,142,0.0,0.0,89,0.00,,,0.00,VWS V14.01,2013-09-08 05:26:00,
2013-09-08 01:31:00,66.2,62.9,30.03,SE,142,0.0,0.0,89,0.00,,,0.00,VWS V14.01,2013-09-08 05:31:00,
2013-09-08 01:36:00,66.2,62.9,30.04,SE,142,0.0,0.0,89,0.00,,,0.00,VWS V14.01,2013-09-08 05:36:00,
2013-09-08 01:41:00,66.2,62.9,30.04,SE,142,0.0,0.0,89,0.00,,,0.00,VWS V14.01,2013-09-08 05:41:00,
2013-09-08 01:46:00,66.2,62.9,30.04,SE,142,0.0,0.0,89,0.00,,,0.00,VWS V14.01,2013-09-08 05:46:00,
2013-09-08 01:51:00,66.2,62.9,30.03,SE,142,0.0,0.0,89,0.00,,,0.00,VWS V14.01,2013-09-08 05:51:00,
2013-09-08 01:56:00,66.1,62.8,30.03,SE,142,0.0,0.0,89,0.00,,,0.00,VWS V14.01,2013-09-08 05:56:00,
2013-09-08 02:01:00,65.9,62.6,30.03,SE,142,0.0,0.0,89,0.00,,,0.00,VWS V14.01,2013-09-08 06:01:00,
2013-09-08 02:06:00,65.8,62.5,30.03,SE,142,0.0,0.0,89,0.00,,,0.00,VWS V14.01,2013-09-08 06:06:00,
2013-09-08 02:11:00,65.7,62.4,30.03,SE,143,0.0,0.0,89,0.00,,,0.00,VWS V14.01,2013-09-08 06:11:00,
2013-09-08 02:16:00,65.6,62.3,30.03,SE,143,0.0,0.0,89,0.00,,,0.00,VWS V14.01,2013-09-08 06:16:00,
2013-09-08 02:21:00,65.5,62.2,30.03,SE,143,0.0,0.0,89,0.00,,,0.00,VWS V14.01,2013-09-08 06:21:00,
2013-09-08 02:26:00,65.4,62.1,30.03,SE,143,0.0,0.0,89,0.00,,,0.00,VWS V14.01,2013-09-08 06:26:00,
2013-09-08 02:31:00,65.3,62.0,30.03,SE,143,0.0,0.0,89,0.00,,,0.00,VWS V14.01,2013-09-08 06:31:00,
2013-09-08 02:36:00,65.3,62.0,30.03,SE,143,0.0,0.0,89,0.00,,,0.00,VWS V14.01,2013-09-08 06:36:00,
2013-09-08 02:41:00,65.4,62.4,30.03,SE,143,0.0,0.0,90,0.00,,,0.00,VWS V14.01,2013-09-08 06:41:00,
2013-09-08 02:46:00,65.3,62.0,30.03,SE,143,0.0,0.0,89,0.00,,,0.00,VWS V14.01,2013-09-08 06:46:00,
2013-09-08 02:51:00,65.3,62.3,30.02,SE,143,0.0,0.0,90,0.00,,,0.00,VWS V14.01,2013-09-08 06:51:00,
2013-09-08 02:56:00,65.3,62.3,30.02,SE,143,0.0,0.0,90,0.00,,,0.00,VWS V14.01,2013-09-08 06:56:00,
2013-09-08 03:01:00,65.3,62.3,30.02,SE,143,0.0,0.0,90,0.00,,,0.00,VWS V14.01,2013-09-08 07:01:00,
2013-09-08 03:06:00,65.3,62.3,30.02,SE,143,0.0,0.0,90,0.00,,,0.00,VWS V14.01,2013-09-08 07:06:00,
2013-09-08 03:11:00,65.3,62.3,30.02,SE,143,0.0,0.0,90,0.00,,,0.00,VWS V14.01,2013-09-08 07:11:00,
2013-09-08 03:16:00,65.2,62.2,30.02,SE,143,0.0,0.0,90,0.00,,,0.00,VWS V14.01,2013-09-08 07:16:00,
2013-09-08 03:21:00,65.1,62.1,30.02,SE,143,0.0,0.0,90,0.00,,,0.00,VWS V14.01,2013-09-08 07:21:00,
2013-09-08 03:26:00,65.0,61.7,30.02,SE,143,0.0,0.0,89,0.00,,,0.00,VWS V14.01,2013-09-08 07:26:00,
2013-09-08 03:31:00,65.0,62.0,30.02,SE,143,0.0,0.0,90,0.00,,,0.00,VWS V14.01,2013-09-08 07:31:00,
2013-09-08 03:36:00,65.0,62.0,30.01,SE,143,0.0,0.0,90,0.00,,,0.00,VWS V14.01,2013-09-08 07:36:00,
2013-09-08 03:41:00,65.0,62.0,30.02,SE,143,0.0,0.0,90,0.00,,,0.00,VWS V14.01,2013-09-08 07:41:00,
2013-09-08 03:46:00,64.9,61.9,30.02,SE,143,0.0,0.0,90,0.00,,,0.00,VWS V14.01,2013-09-08 07:46:00,
2013-09-08 03:51:00,64.9,61.9,30.02,SE,143,0.0,0.0,90,0.00,,,0.00,VWS V14.01,2013-09-08 07:51:00,
2013-09-08 03:56:00,64.9,61.9,30.02,SE,143,0.0,0.0,90,0.00,,,0.00,VWS V14.01,2013-09-08 07:56:00,
2013-09-08 04:01:00,64.8,61.8,30.01,SE,143,0.0,0.0,90,0.00,,,0.00,VWS V14.01,2013-09-08 08:01:00,
2013-09-08 04:06:00,64.8,61.8,30.01,SE,143,0.0,0.0,90,0.00,,,0.00,VWS V14.01,2013-09-08 08:06:00,
2013-09-08 04:11:00,64.7,61.4,30.02,SE,143,0.0,0.0,89,0.00,,,0.00,VWS V14.01,2013-09-08 08:11:00,
2013-09-08 04:16:00,64.6,61.6,30.02,SE,143,0.0,0.0,90,0.00,,,0.00,VWS V14.01,2013-09-08 08:16:00,
2013-09-08 04:21:00,64.6,61.6,30.01,SE,143,0.0,0.0,90,0.00,,,0.00,VWS V14.01,2013-09-08 08:21:00,
2013-09-08 04:26:00,64.5,61.5,30.01,SE,143,0.0,0.0,90,0.00,,,0.00,VWS V14.01,2013-09-08 08:26:00,
2013-09-08 04:31:00,64.4,61.4,30.01,SE,143,0.0,0.0,90,0.00,,,0.00,VWS V14.01,2013-09-08 08:31:00,
2013-09-08 04:36:00,64.3,61.3,30.01,SE,143,0.0,0.0,90,0.00,,,0.00,VWS V14.01,2013-09-08 08:36:00,
2013-09-08 04:41:00,64.2,61.2,30.02,SE,143,0.0,0.0,90,0.00,,,0.00,VWS V14.01,2013-09-08 08:41:00,
2013-09-08 04:46:00,64.2,61.2,30.02,SE,143,0.0,0.0,90,0.00,,,0.00,VWS V14.01,2013-09-08 08:46:00,
2013-09-08 04:51:00,64.2,61.2,30.02,SE,143,0.0,0.0,90,0.00,,,0.00,VWS V14.01,2013-09-08 08:51:00,
2013-09-08 04:56:00,64.2,61.2,30.02,SE,143,0.0,0.0,90,0.00,,,0.00,VWS V14.01,2013-09-08 08:56:00,
2013-09-08 05:01:00,64.1,61.1,30.01,SE,143,0.0,0.0,90,0.00,,,0.00,VWS V14.01,2013-09-08 09:01:00,
2013-09-08 05:06:00,64.1,61.1,30.02,SE,143,0.0,0.0,90,0.00,,,0.00,VWS V14.01,2013-09-08 09:06:00,
2013-09-08 05:11:00,64.0,61.0,30.02,SE,143,0.0,0.0,90,0.00,,,0.00,VWS V14.01,2013-09-08 09:11:00,
2013-09-08 05:16:00,63.9,60.9,30.02,SE,143,0.0,0.0,90,0.00,,,0.00,VWS V14.01,2013-09-08 09:16:00,
2013-09-08 05:21:00,63.9,60.9,30.02,SE,143,0.0,0.0,90,0.00,,,0.00,VWS V14.01,2013-09-08 09:21:00,
2013-09-08 05:26:00,63.8,60.8,30.02,SE,143,0.0,0.0,90,0.00,,,0.00,VWS V14.01,2013-09-08 09:26:00,
2013-09-08 05:31:00,63.8,60.8,30.02,SE,143,0.0,0.0,90,0.00,,,0.00,VWS V14.01,2013-09-08 09:31:00,
2013-09-08 05:36:00,63.9,60.9,30.02,SE,143,0.0,0.0,90,0.00,,,0.00,VWS V14.01,2013-09-08 09:36:00,
2013-09-08 05:41:00,63.8,60.8,30.01,SE,143,0.0,0.0,90,0.00,,,0.00,VWS V14.01,2013-09-08 09:41:00,
2013-09-08 05:46:00,63.7,60.7,30.01,SE,143,0.0,0.0,90,0.00,,,0.00,VWS V14.01,2013-09-08 09:46:00,
2013-09-08 05:51:00,63.6,60.6,30.01,SE,143,0.0,0.0,90,0.00,,,0.00,VWS V14.01,2013-09-08 09:51:00,
2013-09-08 05:56:00,63.5,60.5,30.01,SE,143,0.0,0.0,90,0.00,,,0.00,VWS V14.01,2013-09-08 09:56:00,
2013-09-08 06:01:00,63.5,60.5,30.02,SE,143,0.0,0.0,90,0.00,,,0.00,VWS V14.01,2013-09-08 10:01:00,
2013-09-08 06:06:00,63.5,60.5,30.02,SE,143,0.0,0.0,90,0.00,,,0.00,VWS V14.01,2013-09-08 10:06:00,
2013-09-08 06:11:00,63.5,60.5,30.02,SE,143,0.0,0.0,90,0.00,,,0.00,VWS V14.01,2013-09-08 10:11:00,
2013-09-08 06:16:00,63.5,60.8,30.02,SE,143,0.0,0.0,91,0.00,,,0.00,VWS V14.01,2013-09-08 10:16:00,
2013-09-08 06:21:00,63.4,60.4,30.02,SE,143,0.0,0.0,90,0.00,,,0.00,VWS V14.01,2013-09-08 10:21:00,
2013-09-08 06:26:00,63.4,60.4,30.02,SE,143,0.0,0.0,90,0.00,,,0.00,VWS V14.01,2013-09-08 10:26:00,
2013-09-08 06:31:00,63.4,60.4,30.02,SE,143,0.0,0.0,90,0.00,,,0.00,VWS V14.01,2013-09-08 10:31:00,
2013-09-08 06:36:00,63.4,60.7,30.02,SE,143,0.0,0.0,91,0.00,,,0.00,VWS V14.01,2013-09-08 10:36:00,
2013-09-08 06:41:00,63.4,60.4,30.02,SE,143,0.0,0.0,90,0.00,,,0.00,VWS V14.01,2013-09-08 10:41:00,
2013-09-08 06:46:00,63.3,60.6,30.02,SE,143,0.0,0.0,91,0.00,,,0.00,VWS V14.01,2013-09-08 10:46:00,
2013-09-08 06:51:00,63.3,60.3,30.02,SE,143,0.0,0.0,90,0.00,,,0.00,VWS V14.01,2013-09-08 10:51:00,
2013-09-08 06:56:00,63.3,60.3,30.02,SE,143,0.0,0.0,90,0.00,,,0.00,VWS V14.01,2013-09-08 10:56:00,
2013-09-08 07:01:00,63.3,60.6,30.02,SE,143,0.0,0.0,91,0.00,,,0.00,VWS V14.01,2013-09-08 11:01:00,
2013-09-08 07:06:00,63.3,60.3,30.02,SE,143,0.0,0.0,90,0.00,,,0.00,VWS V14.01,2013-09-08 11:06:00,
2013-09-08 07:11:00,63.3,60.3,30.02,SE,143,0.0,0.0,90,0.00,,,0.00,VWS V14.01,2013-09-08 11:11:00,
2013-09-08 07:16:00,63.3,60.3,30.02,SE,141,0.0,0.0,90,0.00,,,0.00,VWS V14.01,2013-09-08 11:16:00,
2013-09-08 07:21:00,63.2,60.5,30.03,SE,141,0.0,0.0,91,0.00,,,0.00,VWS V14.01,2013-09-08 11:21:00,
2013-09-08 07:26:00,63.3,60.6,30.03,SE,141,0.0,0.0,91,0.00,,,0.00,VWS V14.01,2013-09-08 11:26:00,
2013-09-08 07:31:00,63.5,60.8,30.03,SE,141,0.0,0.0,91,0.00,,,0.00,VWS V14.01,2013-09-08 11:31:00,
2013-09-08 07:36:00,63.6,60.9,30.03,SE,141,0.0,0.0,91,0.00,,,0.00,VWS V14.01,2013-09-08 11:36:00,
2013-09-08 07:41:00,63.7,61.3,30.03,SE,141,0.0,0.0,92,0.00,,,0.00,VWS V14.01,2013-09-08 11:41:00,
2013-09-08 07:46:00,63.9,61.2,30.03,SE,141,0.0,0.0,91,0.00,,,0.00,VWS V14.01,2013-09-08 11:46:00,
2013-09-08 07:51:00,64.2,61.8,30.03,SE,141,0.0,0.0,92,0.00,,,0.00,VWS V14.01,2013-09-08 11:51:00,
2013-09-08 07:56:00,64.5,62.1,30.03,SE,141,0.0,0.0,92,0.00,,,0.00,VWS V14.01,2013-09-08 11:56:00,
2013-09-08 08:01:00,64.8,62.4,30.03,SE,141,0.0,0.0,92,0.00,,,0.00,VWS V14.01,2013-09-08 12:01:00,
2013-09-08 08:06:00,64.9,62.5,30.03,SE,141,0.0,0.0,92,0.00,,,0.00,VWS V14.01,2013-09-08 12:06:00,
2013-09-08 08:11:00,65.1,62.7,30.03,SE,141,0.0,0.0,92,0.00,,,0.00,VWS V14.01,2013-09-08 12:11:00,
2013-09-08 08:16:00,65.2,62.8,30.04,SE,141,0.0,0.0,92,0.00,,,0.00,VWS V14.01,2013-09-08 12:16:00,
2013-09-08 08:21:00,65.3,62.9,30.03,SE,141,0.0,0.0,92,0.00,,,0.00,VWS V14.01,2013-09-08 12:21:00,
2013-09-08 08:26:00,65.5,62.8,30.03,SE,141,0.0,0.0,91,0.00,,,0.00,VWS V14.01,2013-09-08 12:26:00,
2013-09-08 08:31:00,65.9,63.2,30.03,SE,141,0.0,0.0,91,0.00,,,0.00,VWS V14.01,2013-09-08 12:31:00,
2013-09-08 08:36:00,66.1,63.4,30.03,SE,141,0.0,0.0,91,0.00,,,0.00,VWS V14.01,2013-09-08 12:36:00,
2013-09-08 08:41:00,66.5,64.1,30.03,SE,141,0.0,0.0,92,0.00,,,0.00,VWS V14.01,2013-09-08 12:41:00,
2013-09-08 08:46:00,67.0,64.3,30.03,SE,141,0.0,0.0,91,0.00,,,0.00,VWS V14.01,2013-09-08 12:46:00,
2013-09-08 08:51:00,67.4,64.7,30.03,SE,141,0.0,0.0,91,0.00,,,0.00,VWS V14.01,2013-09-08 12:51:00,
2013-09-08 08:56:00,67.5,64.8,30.03,SE,141,0.0,0.0,91,0.00,,,0.00,VWS V14.01,2013-09-08 12:56:00,
2013-09-08 09:01:00,67.8,64.8,30.02,SE,143,0.0,0.0,90,0.00,,,0.00,VWS V14.01,2013-09-08 13:01:00,
2013-09-08 09:06:00,68.2,65.2,30.02,SE,143,0.0,0.0,90,0.00,,,0.00,VWS V14.01,2013-09-08 13:06:00,
2013-09-08 09:11:00,68.7,65.7,30.02,South,177,0.0,0.0,90,0.00,,,0.00,VWS V14.01,2013-09-08 13:11:00,
2013-09-08 09:16:00,69.2,65.8,30.02,West,267,0.0,2.0,89,0.00,,,0.00,VWS V14.01,2013-09-08 13:16:00,
2013-09-08 09:21:00,69.8,66.4,30.02,SSW,200,1.0,2.0,89,0.00,,,0.00,VWS V14.01,2013-09-08 13:21:00,
2013-09-08 09:26:00,70.3,66.6,30.02,SW,226,2.0,2.0,88,0.00,,,0.00,VWS V14.01,2013-09-08 13:26:00,
2013-09-08 09:31:00,71.0,66.9,30.02,SW,227,1.0,2.0,87,0.00,,,0.00,VWS V14.01,2013-09-08 13:31:00,
2013-09-08 09:36:00,71.7,66.9,30.02,WSW,258,2.0,4.0,85,0.00,,,0.00,VWS V14.01,2013-09-08 13:36:00,
2013-09-08 09:41:00,72.3,67.5,30.02,SSW,207,2.0,3.0,85,0.00,,,0.00,VWS V14.01,2013-09-08 13:41:00,
2013-09-08 09:46:00,73.0,67.9,30.03,WSW,237,2.0,3.0,84,0.00,,,0.00,VWS V14.01,2013-09-08 13:46:00,
2013-09-08 09:51:00,73.7,67.9,30.03,West,269,1.0,2.0,82,0.00,,,0.00,VWS V14.01,2013-09-08 13:51:00,
2013-09-08 09:56:00,74.4,68.2,30.03,WNW,284,1.0,3.0,81,0.00,,,0.00,VWS V14.01,2013-09-08 13:56:00,
2013-09-08 10:01:00,75.1,67.8,30.03,WNW,296,0.0,4.0,78,0.00,,,0.00,VWS V14.01,2013-09-08 14:01:00,
2013-09-08 10:06:00,75.7,68.0,30.03,WNW,291,2.0,5.0,77,0.00,,,0.00,VWS V14.01,2013-09-08 14:06:00,
2013-09-08 10:11:00,76.3,68.2,30.03,WSW,244,0.0,4.0,76,0.00,,,0.00,VWS V14.01,2013-09-08 14:11:00,
2013-09-08 10:16:00,76.8,69.4,30.03,West,269,0.0,3.0,78,0.00,,,0.00,VWS V14.01,2013-09-08 14:16:00,
2013-09-08 10:21:00,77.2,68.7,30.03,WSW,256,0.0,4.0,75,0.00,,,0.00,VWS V14.01,2013-09-08 14:21:00,
2013-09-08 10:26:00,77.3,68.8,30.03,WSW,253,1.0,6.0,75,0.00,,,0.00,VWS V14.01,2013-09-08 14:26:00,
2013-09-08 10:31:00,77.5,67.8,30.03,West,278,2.0,3.0,72,0.00,,,0.00,VWS V14.01,2013-09-08 14:31:00,
2013-09-08 10:36:00,77.4,68.5,30.03,West,266,0.0,1.0,74,0.00,,,0.00,VWS V14.01,2013-09-08 14:36:00,
2013-09-08 10:41:00,77.4,68.9,30.04,WNW,287,2.0,2.0,75,0.00,,,0.00,VWS V14.01,2013-09-08 14:41:00,
2013-09-08 10:46:00,77.5,69.0,30.04,West,270,0.0,0.0,75,0.00,,,0.00,VWS V14.01,2013-09-08 14:46:00,
2013-09-08 10:51:00,77.6,68.7,30.04,WNW,286,0.0,0.0,74,0.00,,,0.00,VWS V14.01,2013-09-08 14:51:00,
2013-09-08 10:56:00,77.7,68.8,30.04,South,181,0.0,0.0,74,0.00,,,0.00,VWS V14.01,2013-09-08 14:56:00,
2013-09-08 11:01:00,77.9,68.9,30.04,West,264,2.0,2.0,74,0.00,,,0.00,VWS V14.01,2013-09-08 15:01:00,
2013-09-08 11:06:00,78.1,68.8,30.04,NW,320,1.0,2.0,73,0.00,,,0.00,VWS V14.01,2013-09-08 15:06:00,
2013-09-08 11:11:00,78.2,68.8,30.04,West,281,2.0,5.0,73,0.00,,,0.00,VWS V14.01,2013-09-08 15:11:00,
2013-09-08 11:16:00,78.1,68.3,30.04,WNW,288,2.0,4.0,72,0.00,,,0.00,VWS V14.01,2013-09-08 15:16:00,
2013-09-08 11:21:00,78.1,68.3,30.04,WSW,251,0.0,1.0,72,0.00,,,0.00,VWS V14.01,2013-09-08 15:21:00,
2013-09-08 11:26:00,78.1,68.3,30.04,West,277,2.0,3.0,72,0.00,,,0.00,VWS V14.01,2013-09-08 15:26:00,
2013-09-08 11:31:00,78.1,67.5,30.04,WNW,294,0.0,0.0,70,0.00,,,0.00,VWS V14.01,2013-09-08 15:31:00,
2013-09-08 11:36:00,78.1,67.9,30.04,WNW,302,0.0,1.0,71,0.00,,,0.00,VWS V14.01,2013-09-08 15:36:00,
2013-09-08 11:41:00,78.1,68.3,30.04,West,270,1.0,3.0,72,0.00,,,0.00,VWS V14.01,2013-09-08 15:41:00,
2013-09-08 11:46:00,78.2,68.4,30.04,West,270,0.0,0.0,72,0.00,,,0.00,VWS V14.01,2013-09-08 15:46:00,
2013-09-08 11:51:00,78.5,69.1,30.04,West,269,0.0,0.0,73,0.00,,,0.00,VWS V14.01,2013-09-08 15:51:00,
2013-09-08 11:56:00,78.6,68.8,30.04,West,275,0.0,0.0,72,0.00,,,0.00,VWS V14.01,2013-09-08 15:56:00,
2013-09-08 12:01:00,78.8,69.0,30.03,West,260,2.0,4.0,72,0.00,,,0.00,VWS V14.01,2013-09-08 16:01:00,
2013-09-08 12:06:00,79.1,68.9,30.03,West,266,0.0,3.0,71,0.00,,,0.00,VWS V14.01,2013-09-08 16:06:00,
2013-09-08 12:11:00,79.2,69.0,30.03,West,273,1.0,2.0,71,0.00,,,0.00,VWS V14.01,2013-09-08 16:11:00,
2013-09-08 12:16:00,79.3,67.8,30.03,West,261,0.0,2.0,68,0.00,,,0.00,VWS V14.01,2013-09-08 16:16:00,
2013-09-08 12:21:00,79.5,68.4,30.04,North,0,0.0,0.0,69,0.00,,,0.00,VWS V14.01,2013-09-08 16:21:00,
2013-09-08 12:26:00,79.7,68.6,30.04,NNE,20,1.0,2.0,69,0.00,,,0.00,VWS V14.01,2013-09-08 16:26:00,
2013-09-08 12:31:00,79.9,69.2,30.04,West,259,1.0,2.0,70,0.00,,,0.00,VWS V14.01,2013-09-08 16:31:00,
2013-09-08 12:36:00,80.1,68.2,30.03,South,176,0.0,1.0,67,0.00,,,0.00,VWS V14.01,2013-09-08 16:36:00,
2013-09-08 12:41:00,80.3,68.8,30.03,ENE,74,1.0,1.0,68,0.00,,,0.00,VWS V14.01,2013-09-08 16:41:00,
2013-09-08 12:46:00,80.4,67.6,30.03,East,96,2.0,5.0,65,0.00,,,0.00,VWS V14.01,2013-09-08 16:46:00,
2013-09-08 12:51:00,80.4,68.4,30.03,ESE,107,2.0,2.0,67,0.00,,,0.00,VWS V14.01,2013-09-08 16:51:00,
2013-09-08 12:56:00,80.5,69.0,30.03,East,97,1.0,1.0,68,0.00,,,0.00,VWS V14.01,2013-09-08 16:56:00,
2013-09-08 13:01:00,80.8,69.7,30.03,East,92,0.0,1.0,69,0.00,,,0.00,VWS V14.01,2013-09-08 17:01:00,
2013-09-08 13:06:00,81.1,68.2,30.03,ENE,67,1.0,2.0,65,0.00,,,0.00,VWS V14.01,2013-09-08 17:06:00,
2013-09-08 13:11:00,81.1,69.6,30.03,West,281,1.0,4.0,68,0.00,,,0.00,VWS V14.01,2013-09-08 17:11:00,
2013-09-08 13:16:00,81.1,68.7,30.03,West,280,0.0,0.0,66,0.00,,,0.00,VWS V14.01,2013-09-08 17:16:00,
2013-09-08 13:21:00,80.8,67.0,30.03,NW,317,1.0,2.0,63,0.00,,,0.00,VWS V14.01,2013-09-08 17:21:00,
2013-09-08 13:26:00,80.5,68.1,30.02,ENE,74,0.0,1.0,66,0.00,,,0.00,VWS V14.01,2013-09-08 17:26:00,
2013-09-08 13:31:00,80.7,68.3,30.02,ENE,65,0.0,1.0,66,0.00,,,0.00,VWS V14.01,2013-09-08 17:31:00,
2013-09-08 13:36:00,81.1,68.7,30.02,NE,54,0.0,2.0,66,0.00,,,0.00,VWS V14.01,2013-09-08 17:36:00,
2013-09-08 13:41:00,81.8,68.0,30.02,SSW,200,2.0,2.0,63,0.00,,,0.00,VWS V14.01,2013-09-08 17:41:00,
2013-09-08 13:46:00,82.3,68.9,30.02,SE,133,0.0,1.0,64,0.00,,,0.00,VWS V14.01,2013-09-08 17:46:00,
2013-09-08 13:51:00,82.2,67.9,30.02,West,267,0.0,1.0,62,0.00,,,0.00,VWS V14.01,2013-09-08 17:51:00,
2013-09-08 13:56:00,81.6,67.8,30.02,WNW,288,0.0,0.0,63,0.00,,,0.00,VWS V14.01,2013-09-08 17:56:00,
2013-09-08 14:01:00,81.6,68.7,30.01,West,279,1.0,3.0,65,0.00,,,0.00,VWS V14.01,2013-09-08 18:01:00,
2013-09-08 14:06:00,81.9,70.3,30.01,WNW,286,0.0,3.0,68,0.00,,,0.00,VWS V14.01,2013-09-08 18:06:00,
2013-09-08 14:11:00,82.4,68.1,30.01,SW,227,0.0,3.0,62,0.00,,,0.00,VWS V14.01,2013-09-08 18:11:00,
2013-09-08 14:16:00,82.7,67.9,30.01,WNW,300,0.0,4.0,61,0.00,,,0.00,VWS V14.01,2013-09-08 18:16:00,
2013-09-08 14:21:00,82.9,67.6,30.00,ENE,63,0.0,0.0,60,0.00,,,0.00,VWS V14.01,2013-09-08 18:21:00,
2013-09-08 14:26:00,83.0,67.7,30.01,ENE,66,0.0,1.0,60,0.00,,,0.00,VWS V14.01,2013-09-08 18:26:00,
2013-09-08 14:31:00,83.0,68.2,30.00,NE,54,0.0,0.0,61,0.00,,,0.00,VWS V14.01,2013-09-08 18:31:00,
2013-09-08 14:36:00,83.0,68.2,30.00,ENE,73,0.0,1.0,61,0.00,,,0.00,VWS V14.01,2013-09-08 18:36:00,
2013-09-08 14:41:00,83.2,67.4,30.01,North,352,0.0,1.0,59,0.00,,,0.00,VWS V14.01,2013-09-08 18:41:00,
2013-09-08 14:46:00,82.8,68.0,30.00,East,87,0.0,1.0,61,0.00,,,0.00,VWS V14.01,2013-09-08 18:46:00,
2013-09-08 14:51:00,82.4,67.1,30.00,East,94,0.0,0.0,60,0.00,,,0.00,VWS V14.01,2013-09-08 18:51:00,
2013-09-08 14:56:00,82.1,67.3,30.00,East,95,1.0,1.0,61,0.00,,,0.00,VWS V14.01,2013-09-08 18:56:00,
2013-09-08 15:01:00,81.8,67.1,30.00,East,95,0.0,0.0,61,0.00,,,0.00,VWS V14.01,2013-09-08 19:01:00,
2013-09-08 15:06:00,81.6,67.3,30.00,East,95,0.0,0.0,62,0.00,,,0.00,VWS V14.01,2013-09-08 19:06:00,
2013-09-08 15:11:00,81.7,67.4,30.00,East,93,0.0,0.0,62,0.00,,,0.00,VWS V14.01,2013-09-08 19:11:00,
2013-09-08 15:16:00,81.9,68.1,29.99,East,83,0.0,2.0,63,0.00,,,0.00,VWS V14.01,2013-09-08 19:16:00,
2013-09-08 15:21:00,82.1,67.3,29.99,East,94,0.0,1.0,61,0.00,,,0.00,VWS V14.01,2013-09-08 19:21:00,
2013-09-08 15:26:00,82.3,67.5,29.99,ESE,103,0.0,0.0,61,0.00,,,0.00,VWS V14.01,2013-09-08 19:26:00,
2013-09-08 15:31:00,82.5,67.2,29.99,ESE,107,0.0,0.0,60,0.00,,,0.00,VWS V14.01,2013-09-08 19:31:00,
2013-09-08 15:36:00,82.5,68.2,29.99,ESE,114,0.0,0.0,62,0.00,,,0.00,VWS V14.01,2013-09-08 19:36:00,
2013-09-08 15:41:00,82.4,66.7,29.99,ESE,114,0.0,1.0,59,0.00,,,0.00,VWS V14.01,2013-09-08 19:41:00,
2013-09-08 15:46:00,82.6,68.3,29.99,ESE,112,0.0,1.0,62,0.00,,,0.00,VWS V14.01,2013-09-08 19:46:00,
2013-09-08 15:51:00,82.9,68.6,29.98,ENE,73,0.0,1.0,62,0.00,,,0.00,VWS V14.01,2013-09-08 19:51:00,
2013-09-08 15:56:00,83.1,66.8,29.98,East,84,1.0,2.0,58,0.00,,,0.00,VWS V14.01,2013-09-08 19:56:00,
2013-09-08 16:01:00,83.1,66.8,29.99,East,91,0.0,1.0,58,0.00,,,0.00,VWS V14.01,2013-09-08 20:01:00,
2013-09-08 16:06:00,83.1,66.8,29.99,NE,56,0.0,2.0,58,0.00,,,0.00,VWS V14.01,2013-09-08 20:06:00,
2013-09-08 16:11:00,83.1,66.3,29.99,ENE,76,0.0,1.0,57,0.00,,,0.00,VWS V14.01,2013-09-08 20:11:00,
2013-09-08 16:16:00,83.0,66.7,29.99,East,87,0.0,0.0,58,0.00,,,0.00,VWS V14.01,2013-09-08 20:16:00,
2013-09-08 16:21:00,82.9,67.1,29.98,ENE,69,0.0,0.0,59,0.00,,,0.00,VWS V14.01,2013-09-08 20:21:00,
2013-09-08 16:26:00,82.9,67.6,29.99,East,87,0.0,2.0,60,0.00,,,0.00,VWS V14.01,2013-09-08 20:26:00,
2013-09-08 16:31:00,83.1,66.8,29.99,East,89,0.0,1.0,58,0.00,,,0.00,VWS V14.01,2013-09-08 20:31:00,
2013-09-08 16:36:00,83.1,66.3,29.99,ESE,105,0.0,1.0,57,0.00,,,0.00,VWS V14.01,2013-09-08 20:36:00,
2013-09-08 16:41:00,83.0,66.2,29.99,ENE,62,2.0,2.0,57,0.00,,,0.00,VWS V14.01,2013-09-08 20:41:00,
2013-09-08 16:46:00,82.8,67.5,29.99,East,85,2.0,2.0,60,0.00,,,0.00,VWS V14.01,2013-09-08 20:46:00,
2013-09-08 16:51:00,82.6,66.8,29.98,East,81,2.0,2.0,59,0.00,,,0.00,VWS V14.01,2013-09-08 20:51:00,
2013-09-08 16:56:00,82.5,67.2,29.98,ENE,72,1.0,2.0,60,0.00,,,0.00,VWS V14.01,2013-09-08 20:56:00,
2013-09-08 17:01:00,82.4,66.7,29.99,East,90,1.0,2.0,59,0.00,,,0.00,VWS V14.01,2013-09-08 21:01:00,
2013-09-08 17:06:00,82.2,66.9,29.98,East,93,0.0,0.0,60,0.00,,,0.00,VWS V14.01,2013-09-08 21:06:00,
2013-09-08 17:11:00,82.2,67.9,29.98,East,94,0.0,0.0,62,0.00,,,0.00,VWS V14.01,2013-09-08 21:11:00,
2013-09-08 17:16:00,82.3,67.5,29.98,East,98,0.0,0.0,61,0.00,,,0.00,VWS V14.01,2013-09-08 21:16:00,
2013-09-08 17:21:00,82.4,67.6,29.98,ESE,110,0.0,0.0,61,0.00,,,0.00,VWS V14.01,2013-09-08 21:21:00,
2013-09-08 17:26:00,82.4,67.6,29.98,ESE,114,0.0,1.0,61,0.00,,,0.00,VWS V14.01,2013-09-08 21:26:00,
2013-09-08 17:31:00,82.5,67.7,29.98,East,100,0.0,0.0,61,0.00,,,0.00,VWS V14.01,2013-09-08 21:31:00,
2013-09-08 17:36:00,82.5,67.2,29.98,ESE,117,0.0,0.0,60,0.00,,,0.00,VWS V14.01,2013-09-08 21:36:00,
2013-09-08 17:41:00,82.5,67.2,29.98,East,93,0.0,0.0,60,0.00,,,0.00,VWS V14.01,2013-09-08 21:41:00,
2013-09-08 17:46:00,82.4,66.7,29.98,East,101,0.0,0.0,59,0.00,,,0.00,VWS V14.01,2013-09-08 21:46:00,
2013-09-08 17:51:00,82.3,66.1,29.98,ESE,120,0.0,0.0,58,0.00,,,0.00,VWS V14.01,2013-09-08 21:51:00,
2013-09-08 17:56:00,82.2,66.5,29.98,ESE,122,0.0,0.0,59,0.00,,,0.00,VWS V14.01,2013-09-08 21:56:00,
2013-09-08 18:01:00,82.2,66.0,29.98,SSE,149,0.0,0.0,58,0.00,,,0.00,VWS V14.01,2013-09-08 22:01:00,
2013-09-08 18:06:00,82.2,66.5,29.98,SSE,152,0.0,0.0,59,0.00,,,0.00,VWS V14.01,2013-09-08 22:06:00,
2013-09-08 18:11:00,82.1,66.4,29.98,SSE,152,0.0,1.0,59,0.00,,,0.00,VWS V14.01,2013-09-08 22:11:00,
2013-09-08 18:16:00,82.0,66.8,29.98,SE,142,0.0,0.0,60,0.00,,,0.00,VWS V14.01,2013-09-08 22:16:00,
2013-09-08 18:21:00,81.8,66.1,29.98,SE,142,0.0,1.0,59,0.00,,,0.00,VWS V14.01,2013-09-08 22:21:00,
2013-09-08 18:26:00,81.8,66.6,29.97,SE,141,0.0,1.0,60,0.00,,,0.00,VWS V14.01,2013-09-08 22:26:00,
2013-09-08 18:31:00,81.8,67.1,29.97,SE,141,0.0,0.0,61,0.00,,,0.00,VWS V14.01,2013-09-08 22:31:00,
2013-09-08 18:36:00,81.7,66.5,29.97,SE,141,0.0,0.0,60,0.00,,,0.00,VWS V14.01,2013-09-08 22:36:00,
2013-09-08 18:41:00,81.7,66.5,29.97,SE,136,0.0,0.0,60,0.00,,,0.00,VWS V14.01,2013-09-08 22:41:00,
2013-09-08 18:46:00,81.6,65.9,29.97,SE,136,0.0,0.0,59,0.00,,,0.00,VWS V14.01,2013-09-08 22:46:00,
2013-09-08 18:51:00,81.5,66.3,29.97,SE,138,0.0,0.0,60,0.00,,,0.00,VWS V14.01,2013-09-08 22:51:00,
2013-09-08 18:56:00,81.4,66.2,29.97,SE,138,0.0,1.0,60,0.00,,,0.00,VWS V14.01,2013-09-08 22:56:00,
2013-09-08 19:01:00,81.3,66.6,29.97,SE,138,0.0,1.0,61,0.00,,,0.00,VWS V14.01,2013-09-08 23:01:00,
2013-09-08 19:06:00,81.2,66.0,29.97,SE,138,0.0,0.0,60,0.00,,,0.00,VWS V14.01,2013-09-08 23:06:00,
2013-09-08 19:11:00,80.9,66.7,29.97,SE,141,0.0,0.0,62,0.00,,,0.00,VWS V14.01,2013-09-08 23:11:00,
2013-09-08 19:16:00,80.5,67.7,29.97,SE,144,0.0,0.0,65,0.00,,,0.00,VWS V14.01,2013-09-08 23:16:00,
2013-09-08 19:21:00,80.3,67.9,29.97,SE,145,0.0,0.0,66,0.00,,,0.00,VWS V14.01,2013-09-08 23:21:00,
2013-09-08 19:26:00,79.9,67.5,29.97,SE,145,0.0,0.0,66,0.00,,,0.00,VWS V14.01,2013-09-08 23:26:00,
2013-09-08 19:31:00,79.4,67.1,29.97,SE,145,0.0,0.0,66,0.00,,,0.00,VWS V14.01,2013-09-08 23:31:00,
2013-09-08 19:36:00,79.0,67.1,29.97,SSE,149,0.0,0.0,67,0.00,,,0.00,VWS V14.01,2013-09-08 23:36:00,
2013-09-08 19:41:00,78.8,67.4,29.97,SSE,149,0.0,0.0,68,0.00,,,0.00,VWS V14.01,2013-09-08 23:41:00,
2013-09-08 19:46:00,78.6,67.6,29.98,SSE,149,0.0,0.0,69,0.00,,,0.00,VWS V14.01,2013-09-08 23:46:00,
2013-09-08 19:51:00,78.2,67.6,29.98,SSE,149,0.0,0.0,70,0.00,,,0.00,VWS V14.01,2013-09-08 23:51:00,
2013-09-08 19:56:00,77.9,67.8,29.98,SE,143,0.0,0.0,71,0.00,,,0.00,VWS V14.01,2013-09-08 23:56:00,
2013-09-08 20:01:00,77.4,68.1,29.98,SE,143,0.0,0.0,73,0.00,,,0.00,VWS V14.01,2013-09-09 00:01:00,
2013-09-08 20:06:00,77.0,68.5,29.98,SE,146,0.0,0.0,75,0.00,,,0.00,VWS V14.01,2013-09-09 00:06:00,
2013-09-08 20:11:00,76.6,68.5,29.98,SSE,151,0.0,0.0,76,0.00,,,0.00,VWS V14.01,2013-09-09 00:11:00,
2013-09-08 20:16:00,76.3,68.2,29.98,SSE,151,0.0,0.0,76,0.00,,,0.00,VWS V14.01,2013-09-09 00:16:00,
2013-09-08 20:21:00,76.1,68.4,29.98,SSE,151,0.0,0.0,77,0.00,,,0.00,VWS V14.01,2013-09-09 00:21:00,
2013-09-08 20:26:00,75.7,68.0,29.98,SSE,149,0.0,0.0,77,0.00,,,0.00,VWS V14.01,2013-09-09 00:26:00,
2013-09-08 20:31:00,75.2,68.2,29.98,SE,138,0.0,0.0,79,0.00,,,0.00,VWS V14.01,2013-09-09 00:31:00,
2013-09-08 20:36:00,74.8,68.2,29.98,SE,138,0.0,0.0,80,0.00,,,0.00,VWS V14.01,2013-09-09 00:36:00,
2013-09-08 20:41:00,74.4,67.5,29.98,SE,138,0.0,0.0,79,0.00,,,0.00,VWS V14.01,2013-09-09 00:41:00,
2013-09-08 20:46:00,74.2,67.6,29.98,SE,138,0.0,0.0,80,0.00,,,0.00,VWS V14.01,2013-09-09 00:46:00,
2013-09-08 20:51:00,74.0,67.8,29.99,SE,138,0.0,0.0,81,0.00,,,0.00,VWS V14.01,2013-09-09 00:51:00,
2013-09-08 20:56:00,73.7,67.9,29.99,SE,138,1.0,1.0,82,0.00,,,0.00,VWS V14.01,2013-09-09 00:56:00,
2013-09-08 21:01:00,73.5,67.7,29.98,SE,132,1.0,2.0,82,0.00,,,0.00,VWS V14.01,2013-09-09 01:01:00,
2013-09-08 21:06:00,73.5,67.7,29.99,SE,131,2.0,3.0,82,0.00,,,0.00,VWS V14.01,2013-09-09 01:06:00,
2013-09-08 21:11:00,73.4,67.9,29.99,SE,131,1.0,1.0,83,0.00,,,0.00,VWS V14.01,2013-09-09 01:11:00,
2013-09-08 21:16:00,73.3,67.8,29.99,SE,131,0.0,0.0,83,0.00,,,0.00,VWS V14.01,2013-09-09 01:16:00,
2013-09-08 21:21:00,73.2,67.7,29.99,SE,131,0.0,0.0,83,0.00,,,0.00,VWS V14.01,2013-09-09 01:21:00,
2013-09-08 21:26:00,73.2,67.7,29.99,SE,133,0.0,0.0,83,0.00,,,0.00,VWS V14.01,2013-09-09 01:26:00,
2013-09-08 21:31:00,73.0,67.9,29.99,SE,131,0.0,0.0,84,0.00,,,0.00,VWS V14.01,2013-09-09 01:31:00,
2013-09-08 21:36:00,72.9,67.8,30.00,SE,140,0.0,0.0,84,0.00,,,0.00,VWS V14.01,2013-09-09 01:36:00,
2013-09-08 21:41:00,72.8,67.7,29.99,SE,140,0.0,0.0,84,0.00,,,0.00,VWS V14.01,2013-09-09 01:41:00,
2013-09-08 21:46:00,72.7,67.9,30.00,SE,142,0.0,0.0,85,0.00,,,0.00,VWS V14.01,2013-09-09 01:46:00,
2013-09-08 21:51:00,72.6,67.8,29.99,SE,141,0.0,0.0,85,0.00,,,0.00,VWS V14.01,2013-09-09 01:51:00,
2013-09-08 21:56:00,72.5,67.7,30.00,SE,141,0.0,0.0,85,0.00,,,0.00,VWS V14.01,2013-09-09 01:56:00,
2013-09-08 22:01:00,72.4,67.6,30.00,SE,127,0.0,1.0,85,0.00,,,0.00,VWS V14.01,2013-09-09 02:01:00,
2013-09-08 22:06:00,72.3,67.5,30.00,SE,127,0.0,0.0,85,0.00,,,0.00,VWS V14.01,2013-09-09 02:06:00,
2013-09-08 22:11:00,72.1,67.3,30.00,SE,132,0.0,0.0,85,0.00,,,0.00,VWS V14.01,2013-09-09 02:11:00,
2013-09-08 22:16:00,72.1,67.3,30.00,SE,131,0.0,0.0,85,0.00,,,0.00,VWS V14.01,2013-09-09 02:16:00,
2013-09-08 22:21:00,72.1,67.3,30.00,SE,144,0.0,0.0,85,0.00,,,0.00,VWS V14.01,2013-09-09 02:21:00,
2013-09-08 22:26:00,72.0,67.2,30.00,SE,144,0.0,0.0,85,0.00,,,0.00,VWS V14.01,2013-09-09 02:26:00,
2013-09-08 22:31:00,71.9,67.2,30.00,SE,138,0.0,0.0,85,0.00,,,0.00,VWS V14.01,2013-09-09 02:31:00,
2013-09-08 22:36:00,71.8,67.1,30.00,SE,141,0.0,0.0,85,0.00,,,0.00,VWS V14.01,2013-09-09 02:36:00,
2013-09-08 22:41:00,71.7,66.9,30.00,SE,141,0.0,0.0,85,0.00,,,0.00,VWS V14.01,2013-09-09 02:41:00,
2013-09-08 22:46:00,71.6,66.9,30.00,SE,141,0.0,0.0,85,0.00,,,0.00,VWS V14.01,2013-09-09 02:46:00,
2013-09-08 22:51:00,71.4,66.7,30.01,SE,140,0.0,0.0,85,0.00,,,0.00,VWS V14.01,2013-09-09 02:51:00,
2013-09-08 22:56:00,71.2,66.8,30.01,SE,140,0.0,0.0,86,0.00,,,0.00,VWS V14.01,2013-09-09 02:56:00,
2013-09-08 23:01:00,71.1,66.7,30.01,SE,140,0.0,0.0,86,0.00,,,0.00,VWS V14.01,2013-09-09 03:01:00,
2013-09-08 23:06:00,70.9,66.2,30.02,SE,140,0.0,0.0,85,0.00,,,0.00,VWS V14.01,2013-09-09 03:06:00,
2013-09-08 23:11:00,70.9,66.5,30.02,SE,140,0.0,0.0,86,0.00,,,0.00,VWS V14.01,2013-09-09 03:11:00,
2013-09-08 23:16:00,70.9,66.5,30.02,SE,140,0.0,0.0,86,0.00,,,0.00,VWS V14.01,2013-09-09 03:16:00,
2013-09-08 23:21:00,70.9,66.5,30.02,SE,140,0.0,0.0,86,0.00,,,0.00,VWS V14.01,2013-09-09 03:21:00,
2013-09-08 23:26:00,70.8,66.7,30.02,SSE,150,0.0,0.0,87,0.00,,,0.00,VWS V14.01,2013-09-09 03:26:00,
2013-09-08 23:31:00,70.5,66.1,30.02,SSE,150,0.0,0.0,86,0.00,,,0.00,VWS V14.01,2013-09-09 03:31:00,
2013-09-08 23:36:00,70.4,66.3,30.02,SSE,150,0.0,0.0,87,0.00,,,0.00,VWS V14.01,2013-09-09 03:36:00,
2013-09-08 23:41:00,70.3,66.2,30.02,SSE,150,0.0,0.0,87,0.00,,,0.00,VWS V14.01,2013-09-09 03:41:00,
2013-09-08 23:46:00,70.2,66.2,30.02,SE,142,0.0,2.0,87,0.00,,,0.00,VWS V14.01,2013-09-09 03:46:00,
2013-09-08 23:51:00,70.1,66.1,30.02,SE,129,1.0,1.0,87,0.00,,,0.00,VWS V14.01,2013-09-09 03:51:00,
2013-09-08 23:56:00,70.0,66.0,30.02,SE,128,1.0,2.0,87,0.00,,,0.00,VWS V14.01,2013-09-09 03:56:00,